SIT-2086

Last updated on Wed Feb 05 2025 00:03:01 GMT+0000 (Coordinated Universal Time)

1 61764U 24199AF 25035.59950371 .00026665 00000+0 94200-3 0 9995 2 61764 97.3743 265.3454 0008834 280.4685 79.5559 15.29143836 57828
UTC large
Height (km)
Speed (km/s)
/
Latitude / Longitude
Inclination (degrees)
Orbital Period (minutes)
Azimuth
Elevation
Range (km)
Doppler Factor

Next 0 passes for location: London (51.5072 / 0.1276)

Sorry there are no passes over London.